| time (UTC) | temp C | wind direction | speed KPH | gust KPH | rain 1hr cm | rain 24hr cm | rain mn cm | humidity % | barometer mb |
| 20260509204517 | 20 | 32 | 6.4 | 14.5 | 0.00 | 0.00 | 0.00 | 19 | 1010.0 |
| 20260509203018 | 20 | 71 | 3.2 | 17.7 | 0.00 | 0.00 | 0.00 | 19 | 1010.2 |
| 20260509201515 | 21 | 80 | 3.2 | 14.5 | 0.00 | 0.00 | 0.00 | 21 | 1010.2 |
| 20260509200014 | 20 | 119 | 3.2 | 12.9 | 0.00 | 0.00 | 0.00 | 23 | 1010.4 |
| 20260509194514 | 20 | 257 | 1.6 | 8.0 | 0.00 | 0.00 | 0.00 | 22 | 1010.5 |
| 20260509193012 | 19 | 70 | 4.8 | 9.7 | 0.00 | 0.00 | 0.00 | 25 | 1010.7 |
| 20260509191512 | 19 | 53 | 6.4 | 12.9 | 0.00 | 0.00 | 0.00 | 24 | 1010.9 |
| 20260509190020 | 18 | 129 | 4.8 | 17.7 | 0.00 | 0.00 | 0.00 | 24 | 1010.8 |
| 20260509184513 | 18 | 82 | 4.8 | 11.3 | 0.00 | 0.00 | 0.00 | 24 | 1010.9 |
| 20260509183014 | 19 | 245 | 3.2 | 11.3 | 0.00 | 0.00 | 0.00 | 25 | 1011.0 |
| 20260509181514 | 18 | 94 | 3.2 | 9.7 | 0.00 | 0.00 | 0.00 | 25 | 1011.1 |
| 20260509180005 | 18 | 134 | 3.2 | 4.8 | 0.00 | 0.00 | 0.00 | 27 | 1011.1 |
| 20260509174512 | 17 | 112 | 4.8 | 11.3 | 0.00 | 0.00 | 0.00 | 26 | 1011.1 |
| 20260509173003 | 17 | 12 | 1.6 | 16.1 | 0.00 | 0.00 | 0.00 | 28 | 1011.1 |
| 20260509171501 | 16 | 142 | 1.6 | 8.0 | 0.00 | 0.00 | 0.00 | 27 | 1011.0 |
| 20260509170002 | 16 | 44 | 0.0 | 8.0 | 0.00 | 0.00 | 0.00 | 29 | 1011.1 |
| 20260509164600 | 16 | 119 | 1.6 | 11.3 | 0.00 | 0.00 | 0.00 | 27 | 1011.1 |
| 20260509163115 | 16 | 121 | 0.0 | 8.0 | 0.00 | 0.00 | 0.00 | 33 | 1011.0 |
| 20260509161559 | 15 | 133 | 0.0 | 11.3 | 0.00 | 0.00 | 0.00 | 32 | 1011.1 |
| 20260509160058 | 16 | 109 | 1.6 | 4.8 | 0.00 | 0.00 | 0.00 | 32 | 1011.0 |
| 20260509154555 | 15 | 27 | 0.0 | 6.4 | 0.00 | 0.00 | 0.00 | 33 | 1011.1 |
| 20260509153055 | 15 | 77 | 0.0 | 4.8 | 0.00 | 0.00 | 0.00 | 32 | 1011.1 |
| 20260509151553 | 14 | 47 | 0.0 | 3.2 | 0.00 | 0.00 | 0.00 | 32 | 1011.1 |
| 20260509150104 | 14 | 87 | 0.0 | 3.2 | 0.00 | 0.00 | 0.00 | 35 | 1011.1 |
| 20260509144653 | 14 | 129 | 0.0 | 1.6 | 0.00 | 0.00 | 0.00 | 37 | 1011.1 |
| 20260509143050 | 13 | 277 | 0.0 | 0.0 | 0.00 | 0.00 | 0.00 | 41 | 1011.2 |
| 20260509141545 | 10 | 277 | 0.0 | 0.0 | 0.00 | 0.00 | 0.00 | 53 | 1011.2 |
| 20260509140040 | 7 | 277 | 0.0 | 0.0 | 0.00 | 0.00 | 0.00 | 56 | 1011.1 |
| 20260509134537 | 6 | 277 | 0.0 | 0.0 | 0.00 | 0.00 | 0.00 | 60 | 1010.8 |
| 20260509133035 | -17 | 0.0 | 0.0 | 0.00 | 0.00 | 0.00 | 1010.7 | ||
| 20260509131537 | -17 | 0.0 | 0.0 | 0.00 | 0.00 | 0.00 | 1010.5 | ||
| 20260509130026 | -17 | 0.0 | 0.0 | 0.00 | 0.00 | 0.00 | 1010.4 | ||
| 20260509124523 | -17 | 0.0 | 0.0 | 0.00 | 0.00 | 0.00 | 1010.4 | ||
| 20260509123019 | -17 | 0.0 | 0.0 | 0.00 | 0.00 | 0.00 | 1010.7 | ||
| 20260509121524 | 3 | 281 | 0.0 | 1.6 | 0.00 | 0.00 | 0.00 | 63 | 1010.8 |
| 20260509120016 | 3 | 282 | 0.0 | 1.6 | 0.00 | 0.00 | 0.00 | 62 | 1010.5 |
| 20260509114512 | 3 | 279 | 0.0 | 1.6 | 0.00 | 0.00 | 0.00 | 63 | 1010.4 |
| 20260509113011 | 3 | 277 | 0.0 | 1.6 | 0.00 | 0.00 | 0.00 | 62 | 1010.2 |
| 20260509111512 | 3 | 281 | 0.0 | 1.6 | 0.00 | 0.00 | 0.00 | 62 | 1010.1 |
| 20260509110012 | 3 | 280 | 0.0 | 3.2 | 0.00 | 0.00 | 0.00 | 64 | 1010.2 |
| 20260509104527 | 3 | 276 | 0.0 | 3.2 | 0.00 | 0.00 | 0.00 | 64 | 1010.1 |
| 20260509103007 | 3 | 280 | 0.0 | 3.2 | 0.00 | 0.00 | 0.00 | 63 | 1010.0 |
| 20260509101508 | 5 | 279 | 0.0 | 1.6 | 0.00 | 0.00 | 0.00 | 61 | 1010.0 |
| 20260509100015 | 4 | 280 | 0.0 | 3.2 | 0.00 | 0.00 | 0.00 | 63 | 1010.2 |
| 20260509094516 | 3 | 281 | 0.0 | 3.2 | 0.00 | 0.00 | 0.00 | 62 | 1009.9 |
| 20260509093004 | 4 | 276 | 0.0 | 3.2 | 0.00 | 0.00 | 0.00 | 60 | 1010.0 |
| 20260509091503 | 4 | 280 | 0.0 | 3.2 | 0.00 | 0.00 | 0.00 | 60 | 1010.1 |
| 20260509090003 | 5 | 273 | 1.6 | 3.2 | 0.00 | 0.00 | 0.00 | 59 | 1010.1 |
| 20260509084501 | 4 | 281 | 1.6 | 3.2 | 0.00 | 0.00 | 0.00 | 59 | 1009.9 |
| 20260509083058 | 5 | 277 | 1.6 | 4.8 | 0.00 | 0.00 | 0.00 | 58 | 1009.9 |
| 20260509081556 | 5 | 275 | 1.6 | 4.8 | 0.00 | 0.00 | 0.00 | 58 | 1009.9 |
| 20260509080059 | 5 | 280 | 0.0 | 4.8 | 0.00 | 0.00 | 0.00 | 57 | 1010.0 |
| 20260509074554 | 5 | 280 | 1.6 | 4.8 | 0.00 | 0.00 | 0.00 | 57 | 1009.9 |
| 20260509073052 | 5 | 277 | 1.6 | 4.8 | 0.00 | 0.00 | 0.00 | 58 | 1009.8 |
| 20260509071552 | 6 | 282 | 1.6 | 3.2 | 0.00 | 0.00 | 0.00 | 57 | 1009.6 |
| 20260509070041 | 6 | 275 | 1.6 | 4.8 | 0.00 | 0.00 | 0.00 | 57 | 1009.6 |
| 20260509064535 | 6 | 275 | 1.6 | 4.8 | 0.00 | 0.00 | 0.00 | 57 | 1009.6 |
| 20260509063034 | 6 | 272 | 1.6 | 4.8 | 0.00 | 0.00 | 0.00 | 60 | 1009.4 |
| 20260509061527 | 7 | 279 | 0.0 | 3.2 | 0.00 | 0.00 | 0.00 | 61 | 1009.5 |
| 20260509060024 | 8 | 278 | 0.0 | 3.2 | 0.00 | 0.00 | 0.00 | 60 | 1009.4 |
| 20260509054523 | 9 | 275 | 1.6 | 4.8 | 0.00 | 0.00 | 0.00 | 54 | 1009.2 |
| 20260509053016 | 10 | 206 | 1.6 | 9.7 | 0.00 | 0.00 | 0.00 | 51 | 1009.1 |
| 20260509051513 | 12 | 286 | 6.4 | 24.1 | 0.00 | 0.00 | 0.00 | 46 | 1008.8 |
| 20260509050007 | 12 | 260 | 6.4 | 20.9 | 0.00 | 0.00 | 0.00 | 48 | 1008.6 |
| 20260509044502 | 12 | 259 | 4.8 | 20.9 | 0.00 | 0.00 | 0.00 | 51 | 1008.6 |
| 20260509043110 | 11 | 292 | 6.4 | 19.3 | 0.00 | 0.00 | 0.00 | 51 | 1008.4 |
| 20260509041556 | 12 | 276 | 11.3 | 27.4 | 0.00 | 0.00 | 0.00 | 50 | 1008.2 |
| 20260509040054 | 12 | 271 | 8.0 | 22.5 | 0.00 | 0.00 | 0.00 | 52 | 1008.1 |
| 20260509034558 | 12 | 287 | 6.4 | 29.0 | 0.00 | 0.00 | 0.00 | 54 | 1007.9 |
| 20260509033044 | 12 | 196 | 6.4 | 16.1 | 0.00 | 0.00 | 0.00 | 54 | 1007.8 |
| 20260509031547 | 12 | 191 | 8.0 | 19.3 | 0.00 | 0.00 | 0.00 | 56 | 1007.6 |
| 20260509030035 | 12 | 249 | 6.4 | 17.7 | 0.00 | 0.00 | 0.00 | 56 | 1007.6 |
| 20260509024531 | 13 | 256 | 4.8 | 17.7 | 0.00 | 0.00 | 0.00 | 55 | 1007.5 |
| 20260509023031 | 13 | 302 | 6.4 | 19.3 | 0.00 | 0.00 | 0.00 | 54 | 1007.4 |
| 20260509021524 | 14 | 346 | 4.8 | 22.5 | 0.00 | 0.00 | 0.00 | 51 | 1007.4 |
| 20260509020020 | 16 | 284 | 4.8 | 16.1 | 0.00 | 0.00 | 0.00 | 46 | 1007.4 |
| 20260509014516 | 17 | 233 | 1.6 | 14.5 | 0.00 | 0.00 | 0.00 | 43 | 1007.5 |
| 20260509013032 | 17 | 281 | 4.8 | 14.5 | 0.00 | 0.00 | 0.00 | 40 | 1007.6 |
| 20260509011508 | 18 | 244 | 3.2 | 17.7 | 0.00 | 0.00 | 0.00 | 39 | 1007.6 |
| 20260509010004 | 18 | 201 | 3.2 | 19.3 | 0.00 | 0.00 | 0.00 | 36 | 1007.7 |
| 20260509004559 | 18 | 257 | 1.6 | 14.5 | 0.00 | 0.00 | 0.00 | 35 | 1007.8 |
| 20260509003101 | 18 | 266 | 4.8 | 16.1 | 0.00 | 0.00 | 0.00 | 35 | 1007.9 |
| 20260509001551 | 18 | 248 | 4.8 | 12.9 | 0.00 | 0.00 | 0.00 | 36 | 1008.0 |
| 20260509000047 | 18 | 199 | 1.6 | 17.7 | 0.00 | 0.00 | 0.00 | 33 | 1008.3 |
| 20260508234543 | 18 | 241 | 4.8 | 9.7 | 0.00 | 0.00 | 0.00 | 31 | 1008.5 |
| 20260508233044 | 19 | 276 | 1.6 | 11.3 | 0.00 | 0.00 | 0.00 | 31 | 1008.7 |
| 20260508231542 | 18 | 215 | 6.4 | 17.7 | 0.00 | 0.00 | 0.00 | 32 | 1008.8 |
| 20260508230050 | 18 | 245 | 9.7 | 17.7 | 0.00 | 0.00 | 0.00 | 32 | 1009.0 |
| 20260508224554 | 18 | 264 | 3.2 | 19.3 | 0.00 | 0.00 | 0.00 | 28 | 1009.1 |
| 20260508223031 | 19 | 254 | 0.0 | 24.1 | 0.00 | 0.00 | 0.00 | 24 | 1009.4 |
| 20260508221519 | 19 | 264 | 3.2 | 22.5 | 0.00 | 0.00 | 0.00 | 22 | 1009.7 |
| 20260508220015 | 20 | 202 | 1.6 | 9.7 | 0.00 | 0.00 | 0.00 | 22 | 1009.8 |
| 20260508214512 | 19 | 271 | 1.6 | 27.4 | 0.00 | 0.00 | 0.00 | 26 | 1010.1 |
| 20260508213009 | 18 | 244 | 8.0 | 25.7 | 0.00 | 0.00 | 0.00 | 23 | 1010.3 |
| 20260508211506 | 18 | 281 | 6.4 | 25.7 | 0.00 | 0.00 | 0.00 | 22 | 1010.3 |
| 20260508210100 | 18 | 269 | 9.7 | 29.0 | 0.00 | 0.00 | 0.00 | 20 | 1010.3 |